Home > Time Zones > World Clock > Weather > Iran > Kerman > Past weeks

Flag for Iran Weather past 2 weeks in Kerman, Iran

Now
70 °F

Passing clouds.


Feels Like: 70 °F
Forecast: 63 / 86 °F
Wind: 9 mph from North

Location: Kerman Airport

Current Time: Apr 27, 2015 at 11:36:40 PM

Latest Report: Apr 27, 2015 at 10:30 PM


Visibility: N/A

Pressure: 30.24 "Hg

Humidity: 13%

Dew point: 18 °F

Location of KermanLocation

Historic Weather in Kerman — Graph

°F

Kerman temperature yesterday

Maximum temperature yesterday: 77 °F (at 4:30 PM)
Minimum temperature yesterday: 55 °F (at 6:30 AM)
Average temperature yesterday: 66 °F

Past Weeks' High & Low Weather Summary

 TemperatureHumidityPressure
High90 °F (Apr 24, 3:00 PM)72% (Apr 19, 7:30 AM)30.36 "Hg (Apr 19, 7:30 AM)
Low45 °F (Apr 20, 4:30 AM)2% (Apr 22, 1:30 PM)29.95 "Hg (Apr 18, 5:30 PM)
Average71 °F20%30.17 "Hg
* Reported Apr 12 10:30 PM — Apr 27 10:30 PM, Kerman, Weather by CustomWeather, © 2015

Note: Actual official high and low records may vary slightly from our data, if they occured in-between our weather recording intervals... More about our weather records

Advertising

Kerman weather history for previous 24 hours

 ConditionsComfort  
Time TempWeatherWind HumidityBarometerVisibility
10:30 PM
Mon, Apr 27
70 °FPassing clouds.9 mph13%30.24 "HgN/A
9:30 PM72 °FPassing clouds.14 mph12%30.24 "HgN/A
8:30 PM75 °FScattered clouds.12 mph11%30.21 "HgN/A
7:30 PM79 °FScattered clouds.16 mph13%30.18 "HgN/A
6:30 PM81 °FScattered clouds.12 mph12%30.18 "HgN/A
5:30 PM82 °FScattered clouds.12 mph10%30.15 "HgN/A
4:30 PM82 °FScattered clouds.21 mph11%30.15 "HgN/A
4:00 PM84 °FScattered clouds.18 mph10%30.15 "HgN/A
3:30 PM86 °FScattered clouds.18 mph8%30.15 "HgN/A
2:20 PM86 °FPassing clouds.21 mph8%30.18 "HgN/A
2:00 PM86 °FPassing clouds.18 mph8%30.21 "HgN/A
1:30 PM84 °FPassing clouds.16 mph10%30.21 "HgN/A
1:00 PM84 °FPassing clouds.12 mph9%30.21 "HgN/A
12:30 PM82 °FPassing clouds.5 mph9%30.24 "HgN/A
12:00 PM82 °FPassing clouds.12 mph9%30.24 "HgN/A
11:30 AM82 °FSunny.9 mph8%30.24 "Hg10 mi
11:00 AM81 °FSunny.7 mph9%30.27 "Hg10 mi
10:20 AM77 °FSunny.5 mph11%30.27 "Hg10 mi
10:00 AM73 °FClear.7 mph13%30.27 "Hg5 mi
9:30 AM72 °FClear.7 mph15%30.27 "Hg5 mi
9:00 AM70 °FClear.5 mph16%30.27 "Hg5 mi
8:30 AM66 °FClear.7 mph18%30.27 "Hg5 mi
8:00 AM64 °FClear.5 mph21%30.27 "Hg5 mi
7:30 AM54 °FClear.No wind30%30.24 "Hg5 mi
6:30 AM48 °FClear.5 mph32%30.24 "Hg5 mi
5:30 AM48 °FClear.5 mph32%30.24 "Hg5 mi
4:30 AM50 °FClear.7 mph28%30.24 "Hg10 mi
3:30 AM52 °FClear.No wind24%30.24 "Hg10 mi
2:30 AM54 °FClear.5 mph22%30.24 "Hg10 mi
1:30 AM57 °FClear.7 mph15%30.24 "Hg10 mi
12:30 AM61 °FClear.12 mph12%30.24 "Hg10 mi
11:30 PM
Sun, Apr 26
59 °FClear.7 mph14%30.24 "Hg10 mi
Weather by CustomWeather, © 2015

See weather overviewHow to use our weather pages